Portada
METAR-TAF:

METAR-TAF

Aeroports :

Dodge Center Airport (Dodge Center Municipal)

Dodge Center, Minnesota, Estats Units d'Amèrica

latitud: 44-01-05N, longitud: 092-49-53W, altitud: 398 m

Observació

L'informe es va fer fa 17 minuts, a les 17:55 UTC
Vent 5 kt del Oest/Sud-Oest
Temperatura -7°C
Humitat 93%
Pressió 1021 hPa
Visibilitat: 2.4 km
Cel cobert a una alçada de 100 ft
boirina

METAR: KTOB 101755Z AUTO 24005KT 1 1/2SM BR OVC001 M07/M08 A3014 RMK AO2

Hora: 12:12 (18:12 UTC)


TAF: manca

Observacions i pronòstics meteorològics de més de 4000 aeroports (METAR i TAF).

Les estacions disponibles són els punts grocs i vermells al mapa.

Posi el ratolí al punt desitjat per veure el nom de l'estació.

Feu clic per veure les observacions i els pronòstics meteorològics.

Per canviar el mapa: feu clic els botons verds amb una creu de color negre per apropar; al botó verd amb un guió per allunyar la imatge; o en les fletxes verdes per a mapes adjacents.


METAR-TAF: